[[{"header":{"parameterUnit":"m.s-1","parameterCategory":1,"la1":30.2991,"la2":30.254,"lo1":-89.0895,"lo2":-89.0444,"dy":0.0017,"dx":0.0017,"nx":28,"ny":28,"refTime":"2025-12-04T09:00:00:Z","depth":0,"parameterNumber":2,"parameterNumberName":"U-component_of_WINDS"},"data":[0,0,0,0,0,0,0,0,0,0,0,0,0,0,0,0,0,0,0,0,0,0,0,0,0,0,0,0,0,0,0,0,0,0,0,0,0,0,0,0,0,0,0,0,0,0,0,0,0,0,0,0,0,0,0,0,0,0,-3.5518,-3.5519,0,-3.5564,-3.5564,-3.5565,-3.5444,-3.544,-3.5436,-3.5433,-3.5483,-3.5488,-3.5492,0,0,0,0,0,0,0,0,0,0,0,0,0,-3.5329,-3.5333,-3.5518,-3.5519,-3.5519,-3.5564,-3.5564,-3.5565,-3.5445,-3.544,-3.5435,-3.5431,-3.5481,-3.5487,-3.5493,0,0,0,0,0,0,0,0,0,0,0,0,0,-3.5397,-3.5335,-3.5518,-3.5465,-3.546,-3.5564,-3.5564,-3.5565,-3.5446,-3.544,-3.5434,-3.5429,-3.5479,-3.5486,-3.5494,-3.5652,0,0,-3.5516,-3.5519,0,0,0,0,0,0,0,0,-3.5393,-3.5404,-3.5472,-3.5468,-3.5464,-3.5492,-3.5516,-3.5595,-3.5447,-3.5451,-3.5433,-3.5426,-3.5491,-3.5497,-3.5518,-3.5655,-3.5657,-3.5517,-3.5521,-3.5524,-3.5526,0,0,0,0,0,0,0,-3.5389,-3.5401,-3.5536,-3.5473,-3.5468,-3.5439,-3.5442,-3.553,-3.5502,-3.545,-3.5442,-3.5449,-3.5488,-3.5511,-3.5518,-3.5657,-3.5516,-3.5523,-3.5527,-3.553,-3.5927,-3.5933,0,0,0,0,0,0,-3.539,-3.5398,-3.5535,-3.5538,-3.5414,-3.5447,-3.5451,-3.5489,-3.5501,-3.5497,-3.5453,-3.5443,-3.5502,-3.551,-3.552,-3.5707,-3.5524,-3.5531,-3.5535,-3.5921,-3.5929,-3.5935,0,0,0,0,0,0,-3.5387,-3.5404,-3.5533,-3.5466,-3.548,-3.5456,-3.55,-3.5493,-3.5516,-3.5503,-3.5498,-3.5483,-3.5497,-3.5509,-3.562,-3.5707,-3.5534,-3.5541,-3.5914,-3.5923,-3.5932,-3.6084,0,0,0,0,0,0,-3.5382,-3.5403,-3.5463,-3.5468,-3.5484,-3.5633,-3.5505,-3.5498,-3.5529,-3.5516,-3.5529,-3.5526,-3.5494,-3.561,-3.5627,-3.5714,-3.5546,-3.5906,-3.5918,-3.5929,-3.6071,-3.6097,-3.612,0,0,0,0,0,-3.5376,-3.5504,-3.5466,-3.5484,-3.5558,-3.5638,-3.5647,-3.5607,-3.5536,-3.5597,-3.5588,-3.5526,-3.5694,-3.5622,-3.5641,-3.5731,-3.59,-3.5915,-3.5928,-3.606,-3.6092,-3.6119,0,0,0,0,0,0,-3.5512,-3.5504,-3.5462,-3.5596,-3.5618,-3.5617,-3.5692,-3.5641,-3.5685,-3.5671,-3.5619,-3.5623,-3.5744,-3.5748,-3.5668,-3.5886,-3.5785,-3.5804,-3.588,-3.591,-3.5934,-3.5932,-3.5553,0,0,0,0,0,-3.5557,-3.5622,-3.5612,-3.5731,-3.5744,-3.5717,-3.575,-3.5716,-3.5738,-3.5747,-3.5747,-3.5771,-3.5829,-3.5869,-3.5922,-3.607,-3.6072,-3.6141,-3.6165,-3.6185,-3.6203,-3.6283,-3.6314,-3.5981,-3.5981,-3.598,0,0,-3.5652,-3.5656,-3.57,-3.5758,-3.5772,-3.5842,-3.5726,-3.5804,-3.5855,-3.5759,-3.5865,-3.5865,-3.5888,-3.6019,-3.6076,-3.6026,-3.6295,-3.6203,-3.6219,-3.6226,-3.63,-3.6332,-3.636,-3.599,-3.5989,-3.5987,0,0,-3.5861,-3.5869,-3.597,-3.5986,-3.6007,-3.5988,-3.6012,-3.6018,-3.6015,-3.6119,-3.6049,-3.6109,-3.621,-3.623,-3.6254,-3.6469,-3.6415,-3.6488,-3.6616,-3.6695,-3.6721,-3.6744,-3.6823,-3.6852,-3.6504,-3.6505,-3.6505,0,-3.5977,-3.6078,-3.6029,-3.6112,-3.6141,-3.6055,-3.6158,-3.6175,-3.6214,-3.6236,-3.6178,-3.6303,-3.6313,-3.6448,-3.65,-3.6521,-3.6549,-3.6488,-3.6721,-3.6743,-3.6764,-3.6839,-3.6869,-3.6514,-3.6513,-3.6512,-3.6511,0,-3.6221,-3.6292,-3.6371,-3.6409,-3.6446,-3.6539,-3.6504,-3.6548,-3.651,-3.6497,-3.6605,-3.6613,-3.6666,-3.6695,-3.666,-3.6825,-3.6794,-3.6729,-3.6628,-3.6806,-3.6876,-3.6904,-3.6527,-3.6523,-3.6521,-3.6519,0,0,-3.652,-3.6528,-3.6559,-3.6575,-3.6592,-3.6647,-3.6735,-3.6786,-3.6825,-3.6854,-3.6928,-3.7015,-3.6956,-3.6982,-3.6948,-3.7017,-3.719,-3.6944,-3.6943,-3.6992,-3.7375,-3.7426,-3.746,-3.7151,-3.7157,-3.7161,-3.7374,0,-3.6729,-3.6881,-3.6838,-3.6991,-3.7057,-3.6975,-3.7053,-3.7072,-3.7062,-3.7117,-3.7105,-3.7169,-3.7084,-3.71,-3.7163,-3.7155,-3.7266,-3.7139,-3.7223,-3.7226,-3.7223,-3.7496,-3.755,-3.7751,-3.7401,-3.7405,-3.7408,0,-3.6993,-3.7031,-3.7191,-3.7196,-3.7222,-3.7293,-3.7336,-3.7389,-3.7409,-3.7397,-3.7426,-3.7378,-3.7466,-3.7362,-3.7484,-3.7398,-3.7429,-3.743,-3.7437,-3.7446,-3.7331,-3.7515,-3.7813,-3.7845,-3.745,-3.7447,-3.7444,0,-3.7199,-3.729,-3.7397,-3.7413,-3.7422,-3.7474,-3.748,-3.7494,-3.7527,-3.7565,-3.7587,-3.7635,-3.7662,-3.7701,-3.7667,-3.7594,-3.7796,-3.7688,-3.779,-3.7791,-3.7839,-3.7837,-3.815,-3.7854,-3.7854,-3.7853,-3.7853,0,-3.7439,-3.754,-3.749,-3.7557,-3.7667,-3.7617,-3.7729,-3.7726,-3.7739,-3.7804,-3.7735,-3.7798,-3.7748,-3.7807,-3.778,-3.7887,-3.7899,-3.7893,-3.7885,-3.7901,-3.7902,-3.7923,-3.791,-3.7861,-3.7859,-3.7858,-3.7856,0,-3.769,-3.7659,-3.7771,-3.777,-3.7771,-3.7854,-3.7853,-3.7915,-3.7898,-3.7981,-3.7998,-3.7973,-3.8038,-3.8007,-3.8075,-3.8058,-3.8196,-3.8168,-3.8189,-3.8183,-3.8288,-3.828,-3.8628,-3.8672,-3.8345,-3.8349,-3.8351,0,-3.7846,-3.7922,-3.7928,-3.7966,-3.7977,-3.8039,-3.8072,-3.8025,-3.8063,-3.8091,-3.815,-3.8209,-3.8254,-3.8363,-3.8351,-3.8403,-3.8378,-3.8496,-3.8386,-3.84,-3.8384,-3.8381,-3.8389,-3.852,-3.8524,-3.8527,-3.8529,0,-3.8128,-3.8109,-3.816,-3.8206,-3.8247,-3.8281,-3.8309,-3.8345,-3.8298,-3.8345,-3.841,-3.8445,-3.8514,-3.8574,-3.8619,-3.8626,-3.8572,-3.8564,-3.8591,-3.8609,-3.862,-3.8618,-3.8253,-3.8557,-3.8554,-3.8552,-3.8551,-3.855,-3.8339,-3.8403,-3.8417,-3.8476,-3.8491,-3.8519,-3.8577,-3.8567,-3.8621,-3.8673,-3.8641,-3.8719,-3.8736,-3.8791,-3.8805,-3.8866,-3.8819,-3.8858,-3.8868,-3.8879,-3.8894,-3.8607,-3.8873,-3.8873,-3.8872,-3.8871,-3.8871,0,-3.862,-3.8624,-3.8678,-3.872,-3.8766,-3.8707,-3.8735,-3.8779,-3.8847,-3.8867,-3.8913,-3.8988,-3.9046,-3.9038,-3.9091,-3.9141,-3.9118,-3.9157,-3.9155,-3.9158,-3.8932,-3.8905,-3.9175,-3.9175,-3.9175,-3.9175,-3.9175,-3.9175,-3.8772,-3.8878,-3.886,-3.8973,-3.8977,-3.9052,-3.9073,-3.9098,-3.9114,-3.9202,-3.9249,-3.9242,-3.9252,-3.9305,-3.9356,-3.9352,-3.9376,-3.9426,-3.9413,-3.9203,-3.9173,-3.9145,-3.9119,-3.9431,-3.9431,-3.9634,-3.9636,-3.9638]},{"header":{"parameterUnit":"m.s-1","parameterCategory":1,"la1":30.2991,"la2":30.254,"lo1":-89.0895,"lo2":-89.0444,"dy":0.0017,"dx":0.0017,"nx":28,"ny":28,"refTime":"2025-12-04T09:00:00:Z","depth":0,"parameterNumber":3,"parameterNumberName":"V-component_of_WINDS"},"data":[0,0,0,0,0,0,0,0,0,0,0,0,0,0,0,0,0,0,0,0,0,0,0,0,0,0,0,0,0,0,0,0,0,0,0,0,0,0,0,0,0,0,0,0,0,0,0,0,0,0,0,0,0,0,0,0,0,0,-4.0343,-4.0343,0,-4.0406,-4.0406,-4.0407,-4.041,-4.0409,-4.0408,-4.0408,-4.0468,-4.047,-4.0473,0,0,0,0,0,0,0,0,0,0,0,0,0,-4.0219,-4.0222,-4.0343,-4.0343,-4.0344,-4.0405,-4.0406,-4.0407,-4.041,-4.0409,-4.0408,-4.0407,-4.0467,-4.047,-4.0473,0,0,0,0,0,0,0,0,0,0,0,0,0,-4.0277,-4.0222,-4.0343,-4.0353,-4.0355,-4.0405,-4.0406,-4.0407,-4.041,-4.0409,-4.0408,-4.0407,-4.0466,-4.047,-4.0473,-4.0516,0,0,-4.0484,-4.0485,0,0,0,0,0,0,0,0,-4.0273,-4.0281,-4.0351,-4.0353,-4.0354,-4.0399,-4.0385,-4.0444,-4.041,-4.0389,-4.0408,-4.0406,-4.0446,-4.0451,-4.0465,-4.0519,-4.0522,-4.0484,-4.0486,-4.0487,-4.0488,0,0,0,0,0,0,0,-4.0269,-4.0278,-4.0367,-4.0352,-4.0354,-4.0353,-4.036,-4.0396,-4.0423,-4.0391,-4.0391,-4.0399,-4.0446,-4.0461,-4.0466,-4.0522,-4.0484,-4.0487,-4.0489,-4.049,-4.0612,-4.0613,0,0,0,0,0,0,-4.0264,-4.0275,-4.0365,-4.0369,-4.031,-4.0356,-4.0364,-4.0386,-4.0422,-4.0427,-4.04,-4.0399,-4.0456,-4.0462,-4.0468,-4.0519,-4.0487,-4.0491,-4.0493,-4.0611,-4.0612,-4.0613,0,0,0,0,0,0,-4.0261,-4.0272,-4.0363,-4.0322,-4.0334,-4.0359,-4.0384,-4.0387,-4.0403,-4.0429,-4.0433,-4.0411,-4.0456,-4.0464,-4.0504,-4.0521,-4.0492,-4.0495,-4.0609,-4.0611,-4.0613,-4.0622,0,0,0,0,0,0,-4.0258,-4.0271,-4.0289,-4.0323,-4.0336,-4.0399,-4.0385,-4.0389,-4.0409,-4.0408,-4.044,-4.0445,-4.0455,-4.0499,-4.0507,-4.0526,-4.0498,-4.0608,-4.061,-4.0612,-4.0621,-4.0624,-4.0627,0,0,0,0,0,-4.0253,-4.0289,-4.029,-4.0301,-4.0359,-4.04,-4.0408,-4.042,-4.041,-4.0428,-4.0444,-4.0444,-4.0518,-4.0503,-4.0512,-4.0532,-4.0607,-4.0609,-4.0612,-4.0619,-4.0623,-4.0627,0,0,0,0,0,0,-4.0256,-4.0294,-4.0295,-4.0344,-4.0369,-4.0401,-4.0423,-4.0425,-4.0453,-4.0451,-4.0464,-4.0471,-4.0511,-4.0525,-4.0508,-4.0574,-4.0561,-4.0566,-4.0563,-4.0568,-4.0571,-4.0566,-4.0501,0,0,0,0,0,-4.0263,-4.0294,-4.0325,-4.0364,-4.0377,-4.0398,-4.0416,-4.0424,-4.045,-4.046,-4.048,-4.0504,-4.0532,-4.0551,-4.0579,-4.0623,-4.0628,-4.0641,-4.0644,-4.0647,-4.065,-4.0672,-4.0677,-4.0622,-4.0622,-4.0622,0,0,-4.0276,-4.03,-4.032,-4.0365,-4.0386,-4.0416,-4.0407,-4.044,-4.0462,-4.0465,-4.0504,-4.0519,-4.0546,-4.0588,-4.0607,-4.0601,-4.0667,-4.065,-4.0652,-4.0654,-4.0675,-4.068,-4.0685,-4.0624,-4.0623,-4.0623,0,0,-4.0316,-4.0338,-4.0372,-4.0393,-4.0424,-4.0437,-4.0445,-4.0477,-4.0487,-4.0527,-4.0529,-4.0554,-4.0604,-4.0622,-4.0638,-4.0682,-4.0682,-4.0691,-4.0708,-4.0729,-4.0734,-4.0738,-4.0751,-4.0756,-4.0694,-4.0695,-4.0695,0,-4.0328,-4.0375,-4.0389,-4.0422,-4.0441,-4.0446,-4.0479,-4.0497,-4.0535,-4.0547,-4.0541,-4.0602,-4.0621,-4.0665,-4.0676,-4.0689,-4.0697,-4.0687,-4.0732,-4.0736,-4.074,-4.0753,-4.0758,-4.0695,-4.0695,-4.0695,-4.0695,0,-4.0388,-4.042,-4.0444,-4.0481,-4.0503,-4.0535,-4.0552,-4.0572,-4.0577,-4.059,-4.0629,-4.0651,-4.0683,-4.0694,-4.07,-4.0739,-4.0734,-4.073,-4.0717,-4.0746,-4.0758,-4.0764,-4.0696,-4.0696,-4.0696,-4.0696,0,0,-4.0432,-4.0475,-4.0484,-4.0499,-4.0533,-4.0557,-4.0589,-4.0621,-4.0636,-4.0662,-4.0687,-4.0728,-4.0723,-4.0741,-4.0748,-4.0767,-4.0798,-4.076,-4.0761,-4.0765,-4.084,-4.0842,-4.0848,-4.0798,-4.0799,-4.08,-4.0837,0,-4.0474,-4.0532,-4.0544,-4.0594,-4.0622,-4.0626,-4.0653,-4.0675,-4.0688,-4.0712,-4.0725,-4.0754,-4.0746,-4.0757,-4.0776,-4.079,-4.0813,-4.0788,-4.0819,-4.082,-4.0811,-4.0855,-4.0858,-4.0893,-4.0842,-4.0843,-4.0844,0,-4.0531,-4.0558,-4.0611,-4.0638,-4.065,-4.0675,-4.0703,-4.0728,-4.0752,-4.0759,-4.0779,-4.0783,-4.0814,-4.0799,-4.084,-4.0823,-4.0836,-4.0845,-4.0847,-4.0849,-4.0833,-4.0857,-4.0904,-4.0909,-4.0852,-4.0851,-4.0851,0,-4.0556,-4.0605,-4.0642,-4.0656,-4.069,-4.0706,-4.0721,-4.0744,-4.0761,-4.0786,-4.0796,-4.0824,-4.0838,-4.0858,-4.0869,-4.0858,-4.0908,-4.0896,-4.0914,-4.0913,-4.0924,-4.0923,-4.0972,-4.0934,-4.0934,-4.0934,-4.0934,0,-4.0601,-4.0632,-4.0654,-4.0676,-4.0711,-4.0723,-4.0756,-4.077,-4.079,-4.0814,-4.0818,-4.084,-4.0854,-4.0877,-4.0885,-4.0916,-4.0923,-4.0929,-4.093,-4.0928,-4.0927,-4.0936,-4.0934,-4.0936,-4.0935,-4.0935,-4.0935,0,-4.0635,-4.0651,-4.0691,-4.0719,-4.0726,-4.075,-4.0773,-4.0794,-4.0806,-4.0836,-4.0843,-4.0862,-4.0889,-4.0902,-4.0935,-4.0941,-4.0976,-4.0976,-4.0968,-4.0968,-4.0985,-4.0982,-4.1041,-4.1048,-4.1007,-4.1007,-4.1008,0,-4.0662,-4.0686,-4.0716,-4.0733,-4.0748,-4.0775,-4.0792,-4.0805,-4.0822,-4.085,-4.0867,-4.0895,-4.0917,-4.096,-4.0975,-4.1,-4.1001,-4.1019,-4.1005,-4.1,-4.0999,-4.0997,-4.0998,-4.1022,-4.1022,-4.1023,-4.1023,0,-4.0708,-4.0714,-4.074,-4.0768,-4.0789,-4.0811,-4.0833,-4.0846,-4.0862,-4.0881,-4.0909,-4.0927,-4.096,-4.0987,-4.1012,-4.1025,-4.1026,-4.1027,-4.1033,-4.103,-4.1023,-4.1025,-4.0974,-4.1026,-4.1026,-4.1025,-4.1025,-4.1025,-4.0738,-4.0759,-4.0783,-4.0811,-4.0828,-4.0848,-4.0869,-4.0883,-4.0907,-4.0936,-4.0941,-4.0971,-4.0991,-4.1026,-4.104,-4.1061,-4.1057,-4.1065,-4.1066,-4.1068,-4.1068,-4.102,-4.1066,-4.1066,-4.1066,-4.1066,-4.1066,0,-4.0783,-4.0798,-4.0824,-4.0854,-4.0875,-4.0875,-4.0899,-4.0916,-4.0942,-4.0962,-4.0984,-4.1015,-4.104,-4.1056,-4.1081,-4.1095,-4.1096,-4.1101,-4.1099,-4.1102,-4.1072,-4.1064,-4.11,-4.11,-4.11,-4.11,-4.11,-4.11,-4.0809,-4.0843,-4.0852,-4.0893,-4.0908,-4.0937,-4.095,-4.0968,-4.0984,-4.1018,-4.1039,-4.105,-4.1068,-4.1094,-4.1116,-4.112,-4.1128,-4.1133,-4.1137,-4.1108,-4.1104,-4.1101,-4.1094,-4.1135,-4.1135,-4.1165,-4.1165,-4.1166]}]]